Volver al catálogo

NIMBUS 2 DEB

ActivoLEO
NORAD 38183·DEBRIS·🇺🇸 United States

Lanzado May 15, 1966 desde Vandenberg Space Force Base

Loading…

Próximos Pases (próximas 24 horas)

TLE

ActualizadoSource: Space-Track

Época: Sep 14, 2026, 06:56 UTC

1 38183U 66040BB  26257.28914992  .00001182  00000-0  20149-2 0  9995
2 38183 100.4608 189.9902 0058197 348.7784 165.2940 13.46737206721010

Sigue NIMBUS 2 DEB en tiempo real con AllMySat

Download on the App Store